Regional Weather Roundup
Issued by NWS Green Bay, WI

Home | Current Version | Previous Version | Graphics & Text | Print | Product List | Glossary Off
Versions: 1 2 3 4 5 6 7 8 9 10 11 12 13 14 15 16 17 18 19 20 21 22 23 24 25 26 27 28 29 30 31 32 33 34 35 36 37 38 39 40 41 42 43 44 45 46 47 48 49 50

000
ASUS43 KGRB 241210
RWRGRB

NORTH-CENTRAL AND NORTHEAST WISCONSIN REGIONAL WEATHER ROUNDUP
NATIONAL WEATHER SERVICE GREEN BAY WI
700 AM CDT THU APR 24 2014

WIZ005-009-010>012-018-019-241300-
NORTH CENTRAL WISCONSIN

CITY           SKY/WX    TMP DP  RH WIND       PRES   REMARKS
IRONWOOD       CLOUDY    37  30  75 SE12      29.96F
MANITOWISH WTR CLOUDY    33  33  99 E6        29.99F
ARBOR VITAE    CLOUDY    37  34  91 SE5       29.99F
EAGLE RIVER    CLOUDY    34  29  83 E8        30.01F
LAND O LAKES   FLURRIES  36  32  85 SE8       30.03S
RHINELANDER    CLOUDY    33  31  92 E9        30.01S
PHILLIPS       CLOUDY    34  31  89 E9        29.97F
ANTIGO         CLOUDY    36  20  51 E14       30.00F
TOMAHAWK       CLOUDY    33  30  90 CALM      29.99F
MERRILL        CLOUDY    38  24  57 E7        29.99S
$$

WIZ013-073-241300-
NORTHEAST WISCONSIN

CITY           SKY/WX    TMP DP  RH WIND       PRES   REMARKS
IRON MOUNTAIN  CLOUDY    38  15  39 SE8       30.05S
MARINETTE      CLOUDY    36  23  60 E7        30.07F
OCONTO         CLOUDY    38  25  60 E5        30.06S
$$

WIZ017-030-035>037-045-241300-
CENTRAL WISCONSIN

CITY           SKY/WX    TMP DP  RH WIND       PRES   REMARKS
MEDFORD        CLOUDY    36  25  64 SE7       29.97R
WAUSAU         CLOUDY    39  19  44 SE9       29.98F
MOSINEE        CLOUDY    37  23  56 SE8       30.00F
MARSHFIELD     LGT RAIN  36  32  85 E13       29.96F
WISC RAPIDS    LGT RAIN  36  33  89 E9        29.98F
STEVENS POINT  LGT RAIN  35  29  80 SE7       30.01R
WAUPACA        DRIZZLE   39  28  65 E5        30.02F
SHAWANO        CLOUDY    40  28  62 E7        30.05S
CLINTONVILLE   CLOUDY    41  23  48 E5        30.03S
$$

WIZ038-039-048-051-241300-
FOX VALLEY

CITY           SKY/WX    TMP DP  RH WIND       PRES   REMARKS
NWS GREEN BAY  CLOUDY    41  26  55 E5        30.05F
APPLETON       LGT RAIN  39  25  56 E6        30.03F
OSHKOSH        CLOUDY    42  32  67 SE7       30.02S
FOND DU LAC    LGT RAIN  40  33  76 SE10      30.02S
$$

WIZ022-050-052-241300-
EAST CENTRAL WISCONSIN

CITY           SKY/WX    TMP DP  RH WIND       PRES   REMARKS
STURGEON BAY   CLOUDY    37  23  56 E12       30.07F
MANITOWOC      CLOUDY    39  31  72 E6        30.06F
SHEBOYGAN      CLOUDY    42  31  64 E6        30.05F
$$

LMZ563-521-522-541>543-241300-
LAKESHORE

STATION/POSITION TIME  TEMP    WIND        PRES    VSBY  WAVE
                       AIR SEA DIR/SP/G                  HT/PER
                 (UTC) (F)     (DEG/KT/KT) (MB)    (MI)  (FT/S)
SHEBOYGAN LKSHOR 1200   40     120/  9/ 10 1018.3F
KEWAUNEE LKSHORE 1200   36      50/  6/  8 1018.7F
NORTHPORT PIER   1200   35     120/  7/ 12 1019.3S
SISTER BAY LKSHO 1200   38     150/  8/ 11   N/A
MENOMINEE LKSHOR 1200   33      30/  6/  8 1019.0F
$$



USA.gov is the U.S. government's official web portal to all federal, state and local government web resources and services.